TimeEDT,TemperatureF,Dew PointF,Humidity,Sea Level PressureIn,VisibilityMPH,Wind Direction,Wind SpeedMPH,Gust SpeedMPH,PrecipitationIn,Events,Conditions,WindDirDegrees,DateUTC
12:53 AM,61.0,48.9,64,29.97,10.0,NNE,3.5,-,N/A,,Scattered Clouds,20,2013-05-08 04:53:00
1:53 AM,59.0,48.9,69,29.96,10.0,Calm,Calm,-,N/A,,Mostly Cloudy,0,2013-05-08 05:53:00
2:53 AM,57.0,50.0,77,29.95,10.0,North,4.6,-,N/A,,Overcast,10,2013-05-08 06:53:00
3:53 AM,57.0,50.0,77,29.94,10.0,North,5.8,-,N/A,,Overcast,10,2013-05-08 07:53:00
4:53 AM,57.0,50.0,77,29.95,10.0,North,4.6,-,N/A,,Overcast,360,2013-05-08 08:53:00
5:53 AM,57.0,50.0,77,29.94,10.0,North,3.5,-,N/A,,Overcast,350,2013-05-08 09:53:00
6:53 AM,59.0,50.0,72,29.95,10.0,North,6.9,-,N/A,,Overcast,10,2013-05-08 10:53:00
7:53 AM,60.1,50.0,69,29.97,10.0,NE,5.8,-,N/A,,Overcast,40,2013-05-08 11:53:00
8:53 AM,61.0,52.0,72,29.97,10.0,NNE,3.5,-,N/A,,Mostly Cloudy,20,2013-05-08 12:53:00
9:53 AM,64.9,52.0,63,29.98,10.0,NE,6.9,-,N/A,,Overcast,40,2013-05-08 13:53:00
10:53 AM,66.9,52.0,59,29.98,10.0,NNE,4.6,-,N/A,,Mostly Cloudy,30,2013-05-08 14:53:00
11:53 AM,71.1,52.0,51,29.98,10.0,NNE,6.9,-,N/A,,Partly Cloudy,20,2013-05-08 15:53:00
12:53 PM,72.0,52.0,49,29.97,10.0,NNW,5.8,-,N/A,,Mostly Cloudy,340,2013-05-08 16:53:00
1:53 PM,73.9,53.1,48,29.96,10.0,NNE,6.9,-,N/A,,Scattered Clouds,30,2013-05-08 17:53:00
2:53 PM,75.9,54.0,46,29.94,10.0,Variable,4.6,-,N/A,,Scattered Clouds,0,2013-05-08 18:53:00
3:53 PM,75.9,53.1,45,29.93,10.0,ENE,8.1,-,N/A,,Partly Cloudy,60,2013-05-08 19:53:00
4:53 PM,75.9,50.0,40,29.91,10.0,NNE,5.8,-,N/A,,Partly Cloudy,20,2013-05-08 20:53:00
5:53 PM,73.9,48.9,41,29.91,10.0,North,6.9,-,N/A,,Clear,10,2013-05-08 21:53:00
6:53 PM,73.0,50.0,44,29.92,10.0,NNW,5.8,-,N/A,,Clear,330,2013-05-08 22:53:00
7:53 PM,70.0,50.0,49,29.94,10.0,NW,5.8,-,N/A,,Overcast,320,2013-05-08 23:53:00
8:53 PM,66.9,51.1,57,29.94,10.0,Calm,Calm,-,N/A,,Overcast,0,2013-05-09 00:53:00
9:53 PM,64.9,52.0,63,29.96,10.0,Calm,Calm,-,N/A,,Mostly Cloudy,0,2013-05-09 01:53:00
10:53 PM,62.1,51.1,67,29.96,10.0,West,4.6,-,N/A,,Scattered Clouds,260,2013-05-09 02:53:00
11:53 PM,63.0,52.0,67,29.96,10.0,Calm,Calm,-,N/A,,Mostly Cloudy,0,2013-05-09 03:53:00